Stations météo

réclame
Mon MeteoGroup
Vilhelmina, Suède (2245): Température de l'air & dewpoint: 18.10.2018 07:00:00 - 24.10.2018 07:00:00 (CEST)Vilhelmina, Suède (2245): Vitesse du vent & gusts: 18.10.2018 07:00:00 - 24.10.2018 07:00:00 (CEST)Vilhelmina, Suède (2245): Direction du vent: 18.10.2018 07:00:00 - 24.10.2018 07:00:00 (CEST)Vilhelmina, Suède (2245): reduced air pressure: 18.10.2018 07:00:00 - 24.10.2018 07:00:00 (CEST)Vilhelmina, Suède (2245): visibility: 18.10.2018 07:00:00 - 24.10.2018 07:00:00 (CEST)Vilhelmina, Suède (2245): Quantités de précipitations: 18.10.2018 07:00:00 - 24.10.2018 07:00:00 (CEST)
Date & Time tt [°C] td [°C] ff [km/h] ff [knt] fx [km/h] fx [knt] dd ppp [hPa] vv [km] rr [mm]
24.10.2018 07:00:00 -10,6 -11,8 4 2 4 2 WSW 998,9 10 0,0
24.10.2018 06:00:00 -9,9 -10,7 0 0 6 3 N 998,7 10 0,0
24.10.2018 05:00:00 -10,1 -11,6 0 0 4 2 N 998,5 10 0,0
24.10.2018 04:00:00 -10,0 -10,8 0 0 4 2 N 998,2 10 0,0
24.10.2018 03:00:00 -9,5 -10,4 0 0 4 2 N 997,5 10 0,0
24.10.2018 02:00:00 -9,3 -10,1 0 0 4 2 N 997,1 10 0,0
24.10.2018 01:00:00 -8,4 -9,1 0 0 6 3 N 996,9 10 0,0
24.10.2018 00:00:00 -8,3 -9,1 0 0 5 3 N 996,5 10 0,0
23.10.2018 23:00:00 -5,8 -5,9 4 2 9 5 - 995,7 10 0,0
23.10.2018 22:00:00 -5,8 -6,7 0 0 9 5 N 995,1 10 0,0
23.10.2018 21:00:00 -3,7 -4,4 9 5 14 8 WNW 994,1 10 0,0
23.10.2018 20:00:00 -1,3 -2,6 11 6 16 9 WNW 993,1 10 0,0
23.10.2018 19:00:00 -0,8 -1,2 8 4 11 6 WNW 992,4 10 0,0
23.10.2018 18:00:00 -0,3 -0,7 4 2 9 5 - 991,6 10 0,0
23.10.2018 17:00:00 -0,1 -0,4 5 3 13 7 W 991,0 9 0,2
23.10.2018 16:00:00 -0,1 -0,4 9 5 10 6 SW 990,7 1,7 0,5
23.10.2018 15:00:00 0,1 -0,5 8 4 12 6 S 990,6 2,3 0,6
23.10.2018 14:00:00 0,9 -1,2 5 3 13 7 SSW 990,5 10 0,0
23.10.2018 13:00:00 0,5 -1,4 9 5 16 9 S 990,6 10 0,0
23.10.2018 12:00:00 0,5 -1,4 5 3 13 7 SSW 991,0 10 0,0
23.10.2018 11:00:00 -1,7 -2,0 0 0 3 1 N 991,5 10 0,0
23.10.2018 10:00:00 -3,9 -4,2 0 0 4 2 N 991,7 0,2 0,0
23.10.2018 09:00:00 -5,0 -5,3 0 0 4 2 N 992,2 0,9 0,0
23.10.2018 08:00:00 -7,1 -7,4 0 0 4 2 N 992,4 0,4 0,0
23.10.2018 07:00:00 -6,3 -6,6 0 0 6 4 N 992,5 0,8 0,0
23.10.2018 06:00:00 -5,5 -5,9 3 2 6 3 NW 993,0 50 0,0
23.10.2018 05:00:00 -5,3 -5,7 4 2 5 3 - 994,1 10 0,0
23.10.2018 04:00:00 -3,9 -4,9 0 0 10 5 N 994,7 10 0,0
23.10.2018 03:00:00 -2,3 -3,1 4 2 13 7 - 995,3 10 0,0
23.10.2018 02:00:00 -2,7 -3,5 8 4 11 6 S 996,2 10 0,0
23.10.2018 01:00:00 -2,0 -2,8 5 3 22 12 SW 996,8 10 0,0
23.10.2018 00:00:00 -2,1 -3,4 5 3 15 8 - 997,4 10 0,0
22.10.2018 23:00:00 -0,8 -3,0 11 6 17 9 WSW 998,1 10 0,0
22.10.2018 22:00:00 -0,5 -2,9 15 8 23 12 SW 998,8 10 0,0
22.10.2018 21:00:00 -0,5 -2,6 16 9 24 13 WSW 999,5 10 0,0
22.10.2018 20:00:00 0,4 -2,0 13 7 27 15 WSW 999,7 10 0,0
22.10.2018 19:00:00 1,3 -1,9 21 11 30 16 W 1000,1 10 0,0
22.10.2018 18:00:00 1,8 -1,6 22 12 37 20 WSW 1000,0 10 0,0
22.10.2018 17:00:00 3,0 -1,0 28 15 41 22 W 999,4 10 0,0
22.10.2018 16:00:00 3,2 -0,4 26 14 43 23 WSW 999,0 10 0,0
22.10.2018 15:00:00 3,1 -0,5 26 14 48 26 WSW 999,0 10 0,0
22.10.2018 14:00:00 3,8 -2,0 28 15 43 23 WSW 998,6 10 0,0
22.10.2018 13:00:00 4,0 -1,4 29 16 48 26 WSW 998,4 10 0,0
22.10.2018 12:00:00 3,9 -1,5 24 13 37 20 WSW 998,8 10 0,0
22.10.2018 11:00:00 3,0 -0,8 12 7 24 13 SW 999,3 50 0,0
22.10.2018 10:00:00 2,9 -1,5 11 6 42 23 SW 999,4 10 0,0
22.10.2018 09:00:00 2,7 -1,8 31 17 54 29 WSW 999,4 10 0,0
22.10.2018 08:00:00 1,0 -0,3 13 7 26 14 S 999,8 10 0,0
22.10.2018 07:00:00 1,3 -0,2 18 10 26 14 SSW 1000,0 10 0,0
22.10.2018 06:00:00 1,0 -0,3 13 7 24 13 SW 1000,5 50 0,0
22.10.2018 05:00:00 1,3 -0,9 16 9 23 13 SSW 1000,6 10 0,0
22.10.2018 04:00:00 0,9 -0,9 13 7 20 11 SW 1001,5 10 0,0
22.10.2018 03:00:00 1,3 -0,8 8 4 23 12 SSW 1001,4 10 0,0
22.10.2018 02:00:00 2,6 -0,2 15 8 20 11 SW 1000,9 10 0,0
22.10.2018 01:00:00 3,0 -0,1 13 7 20 11 W 1001,1 10 0,0
22.10.2018 00:00:00 4,1 1,3 13 7 21 11 W 1000,7 10 0,0
21.10.2018 23:00:00 5,0 1,8 16 9 28 15 W 1000,7 10 0,0
21.10.2018 22:00:00 4,9 3,4 15 8 21 11 SW 1001,2 10 0,0
21.10.2018 21:00:00 4,9 4,0 11 6 13 7 WSW 1001,4 10 0,0
21.10.2018 20:00:00 5,4 4,2 10 5 21 11 SSW 1001,8 42 0,1
21.10.2018 19:00:00 6,2 3,9 15 8 21 11 SSW 1002,8 10 0,0
21.10.2018 18:00:00 6,3 4,1 15 8 25 13 SSW 1002,9 10 0,0
21.10.2018 17:00:00 6,4 3,9 15 8 23 13 SSW 1003,1 10 0,0
21.10.2018 16:00:00 7,3 3,5 16 9 33 18 SW 1003,7 10 0,0
21.10.2018 15:00:00 7,2 5,2 18 10 37 20 SSW 1004,5 10 0,0
21.10.2018 14:00:00 7,9 4,5 22 12 41 22 SW 1005,0 10 0,0
21.10.2018 13:00:00 7,8 5,1 16 9 36 19 WSW 1005,7 10 0,0
21.10.2018 12:00:00 8,0 4,4 24 13 36 19 SW 1005,9 10 0,0
21.10.2018 11:00:00 6,1 5,2 16 9 30 16 S 1006,7 10 0,0
21.10.2018 10:00:00 4,4 4,1 18 10 34 18 S 1007,3 10 0,0
21.10.2018 09:00:00 3,9 3,5 21 11 36 19 S 1007,3 10 0,0
21.10.2018 08:00:00 3,7 3,3 24 13 37 20 SSW 1006,7 10 0,0
21.10.2018 07:00:00 3,4 2,8 24 13 37 20 SSW 1008,0 10 0,3
21.10.2018 06:00:00 3,6 2,9 16 9 37 20 SSW 1008,7 10 0,6
21.10.2018 05:00:00 3,8 2,3 21 11 34 18 S 1009,0 10 0,0
21.10.2018 04:00:00 3,8 2,3 13 7 22 12 S 1009,4 10 0,0
21.10.2018 03:00:00 3,9 2,1 13 7 22 12 S 1011,4 10 0,0
21.10.2018 02:00:00 3,7 2,1 11 6 18 10 S 1012,5 10 0,0
21.10.2018 01:00:00 3,3 2,1 11 6 23 13 S 1013,7 10 0,0
21.10.2018 00:00:00 2,7 1,8 5 3 13 7 SSE 1014,9 10 0,0
20.10.2018 23:00:00 2,2 1,5 5 3 14 7 - 1015,9 10 0,0
20.10.2018 22:00:00 1,3 0,3 2 1 9 5 - 1016,7 10 0,0
20.10.2018 21:00:00 0,3 -0,4 0 0 13 7 N 1017,9 10 0,0
20.10.2018 20:00:00 2,1 1,5 8 4 14 8 SSW 1018,2 10 0,0
20.10.2018 19:00:00 1,4 1,1 5 3 9 5 - 1018,5 10 0,0
20.10.2018 18:00:00 1,9 1,3 4 2 7 4 - 1018,8 10 0,0
20.10.2018 17:00:00 4,3 3,0 0 0 9 5 N 1018,4 10 0,0
20.10.2018 16:00:00 6,2 3,2 5 3 16 9 WSW 1018,2 10 0,0
20.10.2018 15:00:00 7,2 3,4 11 6 15 8 W 1018,3 10 0,0
20.10.2018 14:00:00 6,8 3,9 9 5 20 11 W 1018,3 10 0,0
20.10.2018 13:00:00 6,8 5,0 9 5 12 7 WSW 1018,1 10 0,0
20.10.2018 12:00:00 5,8 4,8 9 5 12 7 SSW 1017,8 10 0,0
20.10.2018 11:00:00 4,8 4,5 8 4 10 5 SSW 1018,1 10 0,1
20.10.2018 10:00:00 4,0 3,7 5 3 9 5 - 1017,9 10 0,1
20.10.2018 09:00:00 3,4 3,3 0 0 6 3 N 1017,5 10 0,1
20.10.2018 08:00:00 2,7 2,7 4 2 6 3 - 1017,4 10 0,1
20.10.2018 07:00:00 2,5 2,4 0 0 4 2 N 1017,4 10 0,5
20.10.2018 06:00:00 2,4 2,3 0 0 4 2 N 1017,5 10 0,3
20.10.2018 05:00:00 2,1 1,8 0 0 4 2 N 1017,4 10 0,1
20.10.2018 04:00:00 1,6 1,3 0 0 5 3 N 1017,5 10 0,0
20.10.2018 03:00:00 0,9 0,6 0 0 5 3 N 1017,6 10 0,0
20.10.2018 02:00:00 1,6 1,2 0 0 4 2 N 1017,5 10 0,0
20.10.2018 01:00:00 1,8 1,2 0 0 3 2 N 1017,8 10 0,0
20.10.2018 00:00:00 1,8 1,2 0 0 3 2 N 1017,8 10 0,0
19.10.2018 23:00:00 2,3 1,3 0 0 4 2 N 1017,8 10 0,0
19.10.2018 22:00:00 2,4 1,1 0 0 3 2 N 1018,1 10 0,0
19.10.2018 21:00:00 2,4 1,1 0 0 8 4 N 1018,4 10 0,0
19.10.2018 20:00:00 3,2 1,7 0 0 8 4 N 1018,1 10 0,0
19.10.2018 19:00:00 3,0 1,4 4 2 9 5 - 1018,2 10 0,0
19.10.2018 18:00:00 4,3 1,5 9 5 10 6 WSW 1017,7 10 0,0
19.10.2018 17:00:00 4,6 1,3 8 4 18 10 W 1018,0 10 0,0
19.10.2018 16:00:00 6,3 1,2 11 6 22 12 WSW 1017,7 10 0,0
19.10.2018 15:00:00 7,8 0,0 16 9 22 12 W 1017,2 10 0,0
19.10.2018 14:00:00 7,9 -0,8 15 8 24 13 W 1017,4 10 0,0
19.10.2018 13:00:00 7,7 -1,5 15 8 23 12 WNW 1017,2 10 0,0
19.10.2018 12:00:00 7,2 -1,0 15 8 26 14 W 1017,3 10 0,0
19.10.2018 11:00:00 6,2 0,1 11 6 28 15 WSW 1017,2 10 0,0
19.10.2018 10:00:00 4,9 0,7 16 9 27 14 W 1016,9 10 0,0
19.10.2018 09:00:00 3,7 0,4 18 10 26 14 W 1016,7 10 0,0
19.10.2018 08:00:00 3,1 0,3 18 10 34 18 WSW 1015,9 10 0,0
19.10.2018 07:00:00 3,6 0,6 15 8 29 16 WSW 1015,8 10 0,0
19.10.2018 06:00:00 2,4 0,5 9 5 25 13 SW 1015,2 10 0,0
19.10.2018 05:00:00 3,8 0,5 21 11 29 16 WSW 1014,6 10 0,0
19.10.2018 04:00:00 4,0 0,2 16 9 32 17 W 1014,4 10 0,0
19.10.2018 03:00:00 4,8 0,2 24 13 31 17 W 1013,9 10 0,0
19.10.2018 02:00:00 5,2 0,6 18 10 29 16 WSW 1013,7 10 0,0
19.10.2018 01:00:00 4,2 0,5 13 7 42 23 W 1013,4 10 0,0
19.10.2018 00:00:00 4,8 0,9 24 13 39 21 WSW 1012,7 10 0,0
18.10.2018 23:00:00 5,2 1,3 21 11 35 19 WSW 1012,4 10 0,0
18.10.2018 22:00:00 5,4 1,1 15 8 36 20 SW 1012,2 10 0,0
18.10.2018 21:00:00 5,6 1,1 24 13 54 29 WSW 1011,4 10 0,0
18.10.2018 20:00:00 5,6 2,1 26 14 45 24 WSW 1011,2 10 0,0
18.10.2018 19:00:00 5,7 1,8 26 14 46 25 WSW 1011,3 10 0,0
18.10.2018 18:00:00 5,9 2,0 21 11 44 24 WSW 1011,2 10 0,0
18.10.2018 17:00:00 6,0 1,7 28 15 37 20 WSW 1010,6 10 0,0
18.10.2018 16:00:00 6,8 1,3 31 17 47 25 WSW 1010,2 10 0,0
18.10.2018 15:00:00 6,6 1,3 24 13 37 20 WSW 1010,2 10 0,0
18.10.2018 14:00:00 6,8 0,9 24 13 44 24 WSW 1010,2 10 0,0
18.10.2018 13:00:00 6,5 0,8 24 13 36 19 WSW 1010,0 10 0,0
18.10.2018 12:00:00 6,2 1,3 22 12 37 20 WSW 1010,6 10 0,0
18.10.2018 11:00:00 6,0 0,9 18 10 34 19 WSW 1010,7 10 0,0
18.10.2018 10:00:00 5,0 1,8 21 11 29 16 SW 1010,8 10 0,0
18.10.2018 09:00:00 4,4 1,3 13 7 23 12 WSW 1010,6 10 0,0
18.10.2018 08:00:00 1,2 0,2 4 2 21 11 - 1010,8 10 0,0
18.10.2018 07:00:00 3,2 1,2 13 7 17 9 SW 1010,4 10 0,0

tt = Température de l'air
td = dewpoint
ff = Vitesse du vent
fx = gusts
dd = Direction du vent
ppp = reduced air pressure
vv = visibility
rr = Quantités de précipitations

stations d'obs. à proximité